Weather Roundup
Issued by NWS

Home | Current Version | Previous Version | Text Only | Print | Product List | Glossary On
Versions: 1 2 3 4 5 6 7 8 9 10 11 12 13 14 15 16 17 18 19 20 21 22 23 24 25 26 27 28 29 30 31 32 33 34 35 36 37 38 39 40 41 42 43 44 45 46 47 48 49 50
000
NZUS93 KARX 251859
HRRWXR

CURRENT HOURLY OBSERVATIONS ACROSS
MUCH OF THE UPPER MISSISSIPPI VALLEY
NATIONAL WEATHER SERVICE LA CROSSE WI
200 PM CDT SAT APR 25 2015


...SOUTHEAST MINNESOTA...


CITY           SKY/WX    TMP DP  RH WIND       PRES   REMARKS
ROCHESTER      CLOUDY    50  40  68 E17       29.81S
ROCHESTER/MAYO CLOUDY    50  38  63 E13G21    29.81S
WINONA         CLOUDY    54  36  50 E12       29.82S
AUSTIN         PTSUNNY   52  41  66 E15G21    29.78R
ALBERT LEA     PTSUNNY   54  43  66 E16G23    29.78R
DODGE CENTER   CLOUDY    50  43  76 E17       29.80F
PRESTON        CLOUDY    49  37  63 E13G20    29.80R
OWATONNA       PTSUNNY   52  39  62 NE17      29.81S
FARIBAULT      PTSUNNY   52  39  62 E8G18     29.83S
$$

...ELSEWHERE IN MINNESOTA...


CITY           SKY/WX    TMP DP  RH WIND       PRES   REMARKS
MINNEAPOLIS    MOSUNNY   57  36  45 E12G23    29.83F
INTNL FALLS    SUNNY     54  25  32 E13G21    29.97F
DULUTH         MOSUNNY   49  28  44 E20G25    29.96S
RED WING       CLOUDY    57  34  41 SE14      29.82S
REDWOOD FALLS  PTSUNNY   58  39  49 E12G22    29.82R
MANKATO        PTSUNNY   54  39  58 E18G24    29.82S
WORTHINGTON    PTSUNNY   54  37  54 E16G26    29.79R
FAIRMONT       CLOUDY    52  37  58 NE14G20   29.78S
$$

...SOUTHWEST WISCONSIN...


CITY           SKY/WX    TMP DP  RH WIND       PRES   REMARKS
LA CROSSE      CLOUDY    56  36  47 NE9       29.81F
PRAIRIE DU CHI CLOUDY    50  36  59 E15       29.77F
BOSCOBEL       CLOUDY    51  36  56 E12G21    29.80S
LONE ROCK      NOT AVBL
PLATTEVILLE    CLOUDY    48  41  76 E23G30    29.76F
FORT MC COY    CLOUDY    53  30  42 E17G23    29.83F
VIROQUA        CLOUDY    52  38  57 E14G21    29.79F
WIS DELLS      CLOUDY    50  32  50 E14G24    29.81F
$$

...ELSEWHERE IN WISCONSIN...


CITY           SKY/WX    TMP DP  RH WIND       PRES   REMARKS
MILWAUKEE      CLOUDY    40  30  67 NE16      29.86R WCI  31
MADISON        CLOUDY    49  36  61 E17       29.81S
GREEN BAY      MOSUNNY   47  20  34 NE20      29.90F
EAU CLAIRE     MOSUNNY   56  17  21 E13G26    29.84F
BLACK RVR FLS  CLOUDY    55  25  31 NE15      29.82F
MEDFORD        SUNNY     54  22  28 E14G20    29.85F
WAUSAU         MOSUNNY   56  19  23 NE7G21    29.84F
WIS RAPIDS     SUNNY     56  13  18 E18G25    29.85F
MARSHFIELD     SUNNY     55  20  25 E13G22    29.84F
RICE LAKE      SUNNY     57  15  18 E12G21    29.87F
$$

...NORTHEAST IOWA...


CITY           SKY/WX    TMP DP  RH WIND       PRES   REMARKS
DECORAH        CLOUDY    52  37  58 E15G22    29.76S
MASON CITY     PTSUNNY   56  41  57 E20G28    29.76R
CHARLES CITY   CLOUDY    52  41  66 E24       29.75S
OELWEIN        CLOUDY    50  41  71 E20G29    29.71S
$$

...ELSEWHERE IN IOWA...


CITY           SKY/WX    TMP DP  RH WIND       PRES   REMARKS
DES MOINES     CLOUDY    49  43  80 NE14G24   29.68R
IOWA CITY      CLOUDY    50  44  80 NE17G25   29.67R
FORT DODGE     CLOUDY    52  43  71 E16       29.74S
$$

...NORTHERN ILLINOIS...


CITY           SKY/WX    TMP DP  RH WIND       PRES   REMARKS
CHICAGO-OHARE  LGT RAIN  44  40  85 NE14      29.77F FOG
CHICAGO-MIDWAY LGT RAIN  46  42  86 NE13      29.77F FOG
MOLINE         CLOUDY    49  44  83 E13G28    29.63R
ROCKFORD       CLOUDY    47  40  76 E15       29.77F
PEORIA         CLOUDY    49  44  83 E14G24    29.61R
$$

NOTE: "FAIR" INDICATES FEW OR NO CLOUDS BELOW 12,000 FEET WITH NO
SIGNIFICANT WEATHER AND/OR OBSTRUCTIONS TO VISIBILITY. WIND
SPEEDS ARE IN MILES-PER-HOUR.



USA.gov is the U.S. government's official web portal to all federal, state and local government web resources and services.